KAL938 LOWW-RKSI

Flight info

Callsign KAL938
Flight time N/A
Altitude 33000
Route ADAMA Z648 VEDER DCT ALAMU DCT EPARI DCT BUDOP DCT DINRO DCT UDROS UM859 KARDE UN644 ROLIN/N0486F350 DCT TAGAR DCT BT DCT BARAD M747 SUBUT T916 BALUN/K0895F350 T916 PIGAL M610 RULAD/K0902S1070 A343 POSOT B215 FKG W188 ADPET/K0895S1130 W188 LIKMI W270 DKO W69 HUR B339 LADIX W34 VAPGU W100 ORAVA W201 UNSEK A326 DOBGA/K0900S1070 A326 SANKO/K0909S1010 A326 DONVO G597 AGAVO/N0492F330 Y644 REBIT
Aircraft B77W/H-SDE1E2E3FGHIJ2J3J4J5M1RWXY/LB1D1

Departure

Time 2026-04-24 17:10
Airport Vienna International Airport (LOWW)

Arrival

Time N/A
Airport Incheon International Airport (RKSI)
Time Latitude Longitude Altitude Speed Heading
2026-04-24 16:48 48.11705 16.56814 625 ft 0 kts 26°
2026-04-24 16:56 48.11690 16.56803 627 ft 4 kts 30°
2026-04-24 16:56 48.11688 16.56802 616 ft 4 kts 31°
2026-04-24 16:57 48.11664 16.56785 627 ft 4 kts 25°
2026-04-24 16:57 48.11640 16.56768 627 ft 3 kts 25°
2026-04-24 16:57 48.11630 16.56762 627 ft 4 kts 72°
2026-04-24 16:57 48.11629 16.56762 627 ft 4 kts 117°
2026-04-24 16:58 48.11641 16.56726 627 ft 3 kts 116°
2026-04-24 16:58 48.11653 16.56692 627 ft 4 kts 116°
2026-04-24 16:58 48.11658 16.56677 627 ft 0 kts 116°
2026-04-24 17:01 48.11649 16.56703 618 ft 3 kts 116°
2026-04-24 17:01 48.11638 16.56737 622 ft 8 kts 116°
2026-04-24 17:02 48.11576 16.56926 620 ft 13 kts 116°
2026-04-24 17:02 48.11525 16.57082 622 ft 13 kts 116°
2026-04-24 17:02 48.11486 16.57202 624 ft 13 kts 116°
2026-04-24 17:02 48.11448 16.57319 623 ft 12 kts 116°
2026-04-24 17:03 48.11344 16.57354 621 ft 11 kts 206°
2026-04-24 17:03 48.11275 16.57303 622 ft 11 kts 206°
2026-04-24 17:03 48.11204 16.57285 623 ft 11 kts 142°
2026-04-24 17:04 48.11170 16.57390 623 ft 11 kts 115°
2026-04-24 17:04 48.11081 16.57665 627 ft 17 kts 116°
2026-04-24 17:04 48.11013 16.57804 624 ft 17 kts 155°
2026-04-24 17:05 48.10892 16.57859 623 ft 22 kts 164°
2026-04-24 17:05 48.10785 16.57904 619 ft 24 kts 164°
2026-04-24 17:05 48.10407 16.58064 624 ft 24 kts 164°
2026-04-24 17:06 48.10297 16.58110 621 ft 24 kts 164°
2026-04-24 17:06 48.09972 16.58246 622 ft 24 kts 163°
2026-04-24 17:06 48.09813 16.58316 620 ft 24 kts 163°
2026-04-24 17:07 48.09650 16.58385 623 ft 24 kts 165°
2026-04-24 17:07 48.09488 16.58452 624 ft 24 kts 164°
2026-04-24 17:07 48.09164 16.58589 623 ft 24 kts 164°
2026-04-24 17:08 48.08861 16.58722 625 ft 19 kts 152°
2026-04-24 17:08 48.08790 16.58874 613 ft 19 kts 101°
2026-04-24 17:08 48.08834 16.59045 622 ft 19 kts 45°
2026-04-24 17:09 48.08959 16.59093 627 ft 0 kts 344°
2026-04-24 17:09 48.09017 16.59069 627 ft 26 kts 344°
2026-04-24 17:10 48.09434 16.58893 620 ft 96 kts 344°
2026-04-24 17:10 48.12766 16.57522 1212 ft 195 kts 342°
2026-04-24 17:11 48.16646 16.58138 2496 ft 234 kts 53°